Cloud_Cover
50 9 1 0 0 3 0 0 0 0 0 0 0 0 0 0 0 0 0 1 5 3 4 64 88 0 0 0 0 0 1 2 3 67 69 9 41 24 38 6 5 10 18
5 1 1 0 0 1 0 2 0 0 0 0 0 0 1 1 4 0 3 6 2 0 0 8 13 15 1 6 4 4 3 5 5 9 27 99 100 100 99 12 5 6 6
0 0 0 0 1 0 0 0 0 0 0 0 0 14 15 6 1 0 2 4 2 2 39 6 5 5 5 12 6 7 5 10 99 5 36 49 98 100 76 39 54 5 2
1 0 0 0 0 0 6 0 0 3 1 0 1 2 7 10 2 0 5 1 2 12 0 2 0 0 2 47 72 97 61 7 97 73 14 12 94 82 30 7 5 5 4
7 0 0 0 0 24 0 3 1 3 4 4 0 2 4 4 3 3 12 10 5 0 0 2 0 2 5 54 100 100 100 52 100 100 99 55 95 55 48 5 5 5 5
11 0 0 0 0 2 0 2 4 2 57 5 1 4 0 0 0 0 0 0 1 0 8 0 0 3 7 6 28 56 99 100 96 100 100 55 68 100 93 20 5 20 5
12 0 0 0 0 0 0 0 3 7 100 8 5 0 0 49 10 17 2 0 10 1 0 0 2 3 16 16 100 96 100 94 100 86 100 100 100 100 89 20 10 5 4
3 0 0 2 0 0 0 4 2 7 82 45 0 0 0 5 2 0 2 0 0 0 0 0 2 2 5 83 80 68 5 7 13 55 36 48 76 48 96 97 5 8 5
0 1 0 0 10 2 20 0 3 4 5 51 1 2 2 0 0 0 1 0 0 5 2 5 5 5 5 22 5 3 4 5 18 28 95 10 5 11 9 5 22 6 5
19 11 9 0 2 0 2 5 3 5 2 0 7 1 0 7 0 0 0 0 5 5 5 5 2 0 4 5 4 0 0 0 1 35 9 2 18 8 1 17 17 5 4
38 24 18 0 0 0 0 3 8 2 2 0 0 0 0 0 0 1 4 4 5 4 4 2 4 5 5 4 4 5 0 0 0 0 0 0 0 1 9 5 13 5 2
100 66 27 13 14 1 1 4 5 5 3 4 4 0 0 0 0 5 41 66 5 5 5 3 3 0 0 4 0 0 0 0 0 0 0 0 0 1 0 4 13 17 17
87 94 36 24 16 4 0 5 1 0 0 0 0 0 0 0 0 0 0 5 5 5 5 3 0 0 0 0 0 0 0 0 0 1 4 0 5 4 10 12 2 1 12
61 96 37 20 25 13 6 10 0 0 0 0 0 0 0 0 0 0 0 0 3 5 5 0 0 0 0 0 0 2 71 0 0 5 98 100 28 5 5 16 14 16 4
47 57 49 15 18 20 6 20 7 1 0 0 0 0 0 0 0 0 0 0 0 0 0 0 0 0 0 24 0 0 15 0 0 5 47 86 6 2 5 0 11 5 1
5 40 23 7 1 7 8 8 7 0 0 0 0 0 0 0 1 1 0 0 0 0 0 0 0 0 3 13 0 0 0 0 0 0 0 5 2 3 18 5 0 4 5
0 0 0 0 0 0 1 32 3 5 0 0 0 0 0 0 0 0 0 0 0 0 0 0 0 0 3 16 0 0 0 0 0 5 2 39 5 25 42 7 97 61 4
0 0 0 0 0 0 1 14 15 0 0 0 0 0 0 0 0 2 1 0 0 0 24 15 0 0 27 99 0 0 0 0 2 5 5 5 45 14 14 5 100 7 94
0 0 0 0 0 0 0 4 0 0 0 0 0 0 0 0 0 0 4 0 0 0 14 6 1 0 29 39 0 12 0 0 0 4 9 5 5 29 99 97 77 98 100
0 0 0 0 0 0 0 1 0 0 0 0 0 0 0 0 0 0 8 2 0 0 0 0 0 0 0 0 0 96 6 0 1 0 2 4 5 5 11 66 94 100 100
0 0 0 0 0 0 2 0 0 0 0 0 0 0 0 0 0 0 0 1 5 0 0 0 0 0 0 0 0 1 0 0 9 0 2 0 0 0 0 5 5 30 84
0 0 0 0 0 0 0 0 0 0 0 0 0 0 0 0 0 0 5 0 0 0 0 0 0 0 0 0 0 0 0 0 0 0 1 1 0 0 0 0 2 73 20
3 0 0 0 0 0 0 0 0 0 0 0 4 5 0 0 0 5 2 0 0 0 0 0 0 0 0 0 0 0 0 0 0 0 0 0 0 0 0 0 0 0 7
9 1 0 0 0 0 0 0 0 0 0 0 0 0 0 0 4 5 2 0 0 0 0 0 0 0 0 0 0 0 0 0 0 0 0 0 0 0 0 0 0 0 0
1 13 0 0 0 0 0 0 0 0 0 0 0 0 0 5 5 5 4 0 0 0 0 0 0 0 0 0 0 0 0 0 0 0 0 0 0 0 0 0 0 0 0
5 38 33 0 0 0 0 0 0 0 0 0 0 5 5 4 5 4 5 2 0 0 0 0 0 0 0 0 0 0 0 0 0 0 0 0 0 0 0 0 0 0 0